Weather History for Bentonville, AR

Change the Weather History Date:

Monday, April 15, 2013

  Actual Average Record
Temperature  
Mean Temperature 68 °F -  
Max Temperature 78 °F 67 °F 83 °F (1955)
Min Temperature 55 °F 42 °F 25 °F (1983)
Cooling Degree Days 2    
Growing Degree Days 18 (Base 50)    
Moisture  
Dew Point 56 °F    
Average Humidity 67    
Maximum Humidity 82    
Minimum Humidity 54    
Precipitation  
Precipitation 0.00 in - - ()
Sea Level Pressure  
Sea Level Pressure 29.74 in    
Wind  
Wind Speed 8 mph (SE)    
Max Wind Speed 16 mph    
Max Gust Speed 26 mph    
Visibility 10 miles    
Events      
Averages and records for this station are not official NWS values.
T = Trace of Precipitation, MM = Missing Value Source: NWS Daily Summary

Daily Weather History Graph

Daily Weather History Graph

Search for Another Location

Airport:

Trip Planner

Search our weather history database for the weather conditions in past years. The results will help you decide how hot, cold, wet, or windy it might be!

Date:

Astronomy

Apr. 15, 2013 Rise Set
Actual Time 6:43 AM CDT 7:51 PM CDT
Civil Twilight 6:16 AM CDT 8:17 PM CDT
Nautical Twilight 5:44 AM CDT 8:49 PM CDT
Astronomical Twilight 5:12 AM CDT 9:22 PM CDT
Moon 10:14 AM CDT (4/15) No Moon Set
Length of Visible Light 14h 01m
Length of Day
13h 08m
Waxing Crescent, 25% of the Moon is Illuminated
Apr 15
Waxing Crescent
Apr 18
First Quarter
Apr 25
Full
May 2
Last Quarter
May 9
New

Hourly Weather History & Observations

Time (CDT) Temp. Dew Point Humidity Pressure Visibility Wind Dir Wind Speed Gust Speed Precip Events Conditions
12:15 AM 64.4 °F 50.0 °F 59% 29.68 in 10.0 mi South 8.1 mph - N/A   Clear
12:35 AM 64.4 °F 50.0 °F 59% 29.69 in 10.0 mi South 6.9 mph - N/A   Clear
12:55 AM 64.4 °F 50.0 °F 59% 29.69 in 10.0 mi South 4.6 mph - N/A   Clear
1:15 AM 60.8 °F 50.0 °F 68% 29.69 in 10.0 mi SSE 4.6 mph - N/A   Clear
1:35 AM 60.8 °F 50.0 °F 68% 29.70 in 10.0 mi NNW 6.9 mph - N/A   Partly Cloudy
1:55 AM 62.6 °F 50.0 °F 63% 29.71 in 10.0 mi North 4.6 mph - N/A   Mostly Cloudy
2:15 AM 60.8 °F 50.0 °F 68% 29.70 in 10.0 mi North 3.5 mph - N/A   Partly Cloudy
2:35 AM 57.2 °F 50.0 °F 77% 29.70 in 10.0 mi Calm Calm - N/A   Clear
2:55 AM 59.0 °F 50.0 °F 72% 29.70 in 10.0 mi Calm Calm - N/A   Clear
3:15 AM 57.2 °F 48.2 °F 72% 29.71 in 10.0 mi Calm Calm - N/A   Clear
3:35 AM 59.0 °F 51.8 °F 77% 29.72 in 10.0 mi NNW 6.9 mph - N/A   Mostly Cloudy
3:55 AM 60.8 °F 51.8 °F 72% 29.72 in 10.0 mi North 6.9 mph - N/A   Overcast
4:15 AM 60.8 °F 53.6 °F 77% 29.72 in 10.0 mi NNE 9.2 mph - N/A   Overcast
4:35 AM 60.8 °F 53.6 °F 77% 29.72 in 10.0 mi North 10.4 mph - N/A   Overcast
4:55 AM 60.8 °F 53.6 °F 77% 29.72 in 10.0 mi NNE 10.4 mph - N/A   Overcast
5:15 AM 60.8 °F 53.6 °F 77% 29.72 in 10.0 mi NNE 9.2 mph - N/A   Overcast
5:35 AM 60.8 °F 51.8 °F 72% 29.72 in 10.0 mi NNE 11.5 mph 16.1 mph N/A   Overcast
5:55 AM 60.8 °F 50.0 °F 68% 29.73 in 10.0 mi NE 11.5 mph 16.1 mph N/A   Overcast
6:15 AM 60.8 °F 50.0 °F 68% 29.73 in 10.0 mi NNE 10.4 mph - N/A   Overcast
6:35 AM 60.8 °F 48.2 °F 63% 29.74 in 10.0 mi NNE 10.4 mph 17.3 mph N/A   Overcast
6:55 AM 59.0 °F 48.2 °F 67% 29.74 in 10.0 mi NNE 11.5 mph - N/A   Overcast
7:15 AM 59.0 °F 48.2 °F 67% 29.75 in 10.0 mi NNE 9.2 mph - N/A   Overcast
7:35 AM 59.0 °F 48.2 °F 67% 29.75 in 10.0 mi NE 11.5 mph - N/A   Overcast
7:55 AM 59.0 °F 48.2 °F 67% 29.76 in 10.0 mi NE 11.5 mph - N/A   Overcast
8:15 AM 59.0 °F 48.2 °F 67% 29.76 in 10.0 mi NE 6.9 mph - N/A   Overcast
8:35 AM 59.0 °F 48.2 °F 67% 29.75 in 10.0 mi NE 9.2 mph - N/A   Overcast
8:55 AM 59.0 °F 48.2 °F 67% 29.75 in 10.0 mi NE 6.9 mph - N/A   Overcast
9:15 AM 60.8 °F 50.0 °F 68% 29.75 in 10.0 mi NE 5.8 mph - N/A   Overcast
9:35 AM 60.8 °F 51.8 °F 72% 29.75 in 10.0 mi ENE 4.6 mph - N/A   Overcast
9:55 AM 62.6 °F 55.4 °F 77% 29.75 in 10.0 mi East 6.9 mph - N/A   Overcast
10:15 AM 64.4 °F 55.4 °F 73% 29.74 in 10.0 mi East 6.9 mph - N/A   Overcast
10:35 AM 66.2 °F 55.4 °F 68% 29.75 in 10.0 mi SE 6.9 mph - N/A   Overcast
10:55 AM 66.2 °F 57.2 °F 73% 29.74 in 10.0 mi SE 6.9 mph - N/A   Overcast
11:15 AM 68.0 °F 59.0 °F 73% 29.74 in 10.0 mi South 9.2 mph - N/A   Overcast
11:35 AM 71.6 °F 60.8 °F 69% 29.75 in 10.0 mi South 16.1 mph 26.5 mph N/A   Overcast
11:55 AM 71.6 °F 60.8 °F 69% 29.75 in 10.0 mi SSW 13.8 mph 20.7 mph N/A   Overcast
12:15 PM 73.4 °F 60.8 °F 65% 29.76 in 10.0 mi South 12.7 mph 20.7 mph N/A   Overcast
12:35 PM 71.6 °F 60.8 °F 69% 29.76 in 10.0 mi South 13.8 mph 18.4 mph N/A   Overcast
12:55 PM 73.4 °F 62.6 °F 69% 29.76 in 10.0 mi SSW 16.1 mph 20.7 mph N/A   Overcast
1:15 PM 73.4 °F 60.8 °F 65% 29.75 in 10.0 mi SSW 16.1 mph 21.9 mph N/A   Overcast
1:35 PM 73.4 °F 60.8 °F 65% 29.75 in 10.0 mi SSW 16.1 mph 19.6 mph N/A   Overcast
1:55 PM 75.2 °F 60.8 °F 61% 29.75 in 7.0 mi SSW 13.8 mph - N/A   Overcast
2:15 PM 75.2 °F 60.8 °F 61% 29.74 in 10.0 mi South 12.7 mph 18.4 mph N/A   Overcast
2:35 PM 75.2 °F 60.8 °F 61% 29.74 in 10.0 mi South 11.5 mph 19.6 mph N/A   Overcast
2:55 PM 75.2 °F 60.8 °F 61% 29.74 in 10.0 mi South 11.5 mph 19.6 mph N/A   Overcast
3:15 PM 75.2 °F 62.6 °F 65% 29.74 in 10.0 mi South 9.2 mph - N/A   Overcast
3:35 PM 78.8 °F 62.6 °F 57% 29.73 in 10.0 mi South 10.4 mph - N/A   Mostly Cloudy
3:55 PM 77.0 °F 62.6 °F 61% 29.73 in 10.0 mi South 11.5 mph - N/A   Overcast
4:15 PM 75.2 °F 60.8 °F 61% 29.73 in 10.0 mi South 11.5 mph - N/A   Overcast
4:35 PM 75.2 °F 62.6 °F 65% 29.73 in 10.0 mi South 5.8 mph - N/A   Overcast
4:55 PM 77.0 °F 62.6 °F 61% 29.72 in 10.0 mi South 8.1 mph 16.1 mph N/A   Overcast
5:15 PM 77.0 °F 62.6 °F 61% 29.72 in 10.0 mi SSE 10.4 mph - N/A   Mostly Cloudy
5:35 PM 75.2 °F 62.6 °F 65% 29.72 in 10.0 mi SSE 6.9 mph - N/A   Overcast
5:55 PM 77.0 °F 62.6 °F 61% 29.72 in 10.0 mi South 5.8 mph - N/A   Overcast
6:15 PM 78.8 °F 60.8 °F 54% 29.72 in 10.0 mi SSW 10.4 mph - N/A   Overcast
6:35 PM 78.8 °F 60.8 °F 54% 29.72 in 10.0 mi South 10.4 mph - N/A   Mostly Cloudy
6:55 PM 77.0 °F 60.8 °F 57% 29.72 in 10.0 mi South 8.1 mph - N/A   Scattered Clouds
7:15 PM 75.2 °F 62.6 °F 65% 29.73 in 10.0 mi South 10.4 mph - N/A   Clear
7:35 PM 73.4 °F 60.8 °F 65% 29.74 in 10.0 mi South 9.2 mph - N/A   Clear
7:55 PM 73.4 °F 60.8 °F 65% 29.74 in 10.0 mi South 10.4 mph - N/A   Clear
8:15 PM 73.4 °F 59.0 °F 61% 29.75 in 10.0 mi SSE 10.4 mph - N/A   Clear
8:35 PM 71.6 °F 59.0 °F 64% 29.76 in 10.0 mi SSE 10.4 mph - N/A   Clear
8:55 PM 71.6 °F 59.0 °F 64% 29.77 in 10.0 mi SSE 11.5 mph - N/A   Clear
9:15 PM 71.6 °F 59.0 °F 64% 29.78 in 10.0 mi SE 6.9 mph - N/A   Clear
9:35 PM 69.8 °F 59.0 °F 68% 29.79 in 10.0 mi SSE 8.1 mph - N/A   Clear
9:55 PM 69.8 °F 59.0 °F 68% 29.81 in 10.0 mi SSE 4.6 mph - N/A   Clear
10:15 PM 68.0 °F 59.0 °F 73% 29.81 in 10.0 mi Calm Calm - N/A   Clear
10:35 PM 66.2 °F 55.4 °F 68% 29.82 in 10.0 mi North 11.5 mph - N/A   Partly Cloudy
10:55 PM 60.8 °F 51.8 °F 72% 29.83 in 10.0 mi North 12.7 mph - N/A   Clear
11:15 PM 59.0 °F 51.8 °F 77% 29.83 in 10.0 mi North 8.1 mph - N/A   Clear
11:35 PM 57.2 °F 50.0 °F 77% 29.83 in 10.0 mi North 9.2 mph - N/A   Partly Cloudy
11:55 PM 55.4 °F 50.0 °F 82% 29.82 in 10.0 mi North 8.1 mph - N/A   Clear